Weather History for Dutch Harbor, AK

Change the Weather History Date:

Thursday, March 28, 2013

  Actual Average Record
Temperature  
Mean Temperature 38 °F -  
Max Temperature 41 °F 37 °F 48 °F (2009)
Min Temperature 35 °F 27 °F 14 °F (1953)
Degree Days  
Heating Degree Days 27    
Moisture  
Dew Point 32 °F    
Average Humidity 78    
Maximum Humidity 93    
Minimum Humidity 70    
Precipitation  
Precipitation 0.06 in - - ()
Sea Level Pressure  
Sea Level Pressure 29.36 in    
Wind  
Wind Speed 7 mph (South)    
Max Wind Speed 16 mph    
Max Gust Speed 21 mph    
Visibility 10 miles    
Events Rain , Snow    
Averages and records for this station are not official NWS values.
T = Trace of Precipitation, MM = Missing Value Source: NWS Daily Summary

Daily Weather History Graph

Daily Weather History Graph

Search for Another Location

Airport:

Trip Planner

Search our weather history database for the weather conditions in past years. The results will help you decide how hot, cold, wet, or windy it might be!

Date:

Astronomy

Mar. 28, 2013 Rise Set
Actual Time 8:47 AM AKDT 9:35 PM AKDT
Civil Twilight 8:11 AM AKDT 10:11 PM AKDT
Nautical Twilight 7:29 AM AKDT 10:54 PM AKDT
Astronomical Twilight 6:43 AM AKDT 11:40 PM AKDT
Moon No Moon Rise 9:05 AM AKDT
Length of Visible Light 13h 59m
Length of Day
12h 47m
Full, 97% of the Moon is Illuminated
Mar 28
Full
Apr 2
Last Quarter
Apr 10
New
Apr 18
First Quarter
Apr 25
Full

Hourly Weather History & Observations

Time (AKDT) Temp. Windchill Dew Point Humidity Pressure Visibility Wind Dir Wind Speed Gust Speed Precip Events Conditions
12:26 AM 35.6 °F 32.8 °F 33.8 °F 93% 29.45 in 10.0 mi West 3.5 mph - 0.00 in Rain Light Rain
12:56 AM 36.0 °F 33.3 °F 33.1 °F 89% 29.46 in 10.0 mi Variable 3.5 mph - 0.01 in Rain Light Rain
1:09 AM 35.6 °F 29.9 °F 33.8 °F 93% 29.44 in 10.0 mi WNW 6.9 mph - 0.01 in Rain Light Rain
1:33 AM 35.6 °F 29.2 °F 33.8 °F 93% 29.44 in 10.0 mi West 8.1 mph - 0.01 in Rain Light Rain
1:56 AM 35.1 °F 30.1 °F 32.0 °F 89% 29.45 in 10.0 mi North 5.8 mph - 0.01 in Rain Light Rain
2:56 AM 37.0 °F - 32.0 °F 82% 29.45 in 10.0 mi Calm Calm - 0.00 in   Overcast
3:17 AM 37.4 °F 33.8 °F 32.0 °F 81% 29.42 in 10.0 mi South 4.6 mph - N/A   Overcast
3:56 AM 37.0 °F - 32.0 °F 82% 29.44 in 10.0 mi Calm Calm - 0.00 in Rain Light Rain
4:56 AM 37.9 °F - 30.9 °F 76% 29.42 in 10.0 mi Calm Calm - 0.00 in Rain Light Rain
5:56 AM 35.1 °F 32.2 °F 32.0 °F 89% 29.40 in 10.0 mi WNW 3.5 mph - 0.00 in Rain Light Rain
6:02 AM 35.6 °F 31.7 °F 32.0 °F 87% 29.38 in 10.0 mi WNW 4.6 mph - 0.00 in Rain , Snow Light Rain
6:56 AM 37.9 °F 30.9 °F 32.0 °F 79% 29.38 in 9.0 mi SSE 10.4 mph - 0.01 in Rain , Snow Light Rain
7:56 AM 37.9 °F 30.9 °F 32.0 °F 79% 29.36 in 10.0 mi SE 10.4 mph 18.4 mph 0.02 in Rain , Snow Light Rain
8:36 AM 37.4 °F 30.3 °F 32.0 °F 81% 29.34 in 7.0 mi South 10.4 mph 16.1 mph 0.00 in Rain , Snow Light Rain
8:56 AM 39.0 °F 32.3 °F 32.0 °F 76% 29.36 in 7.0 mi SSE 10.4 mph 20.7 mph 0.00 in Rain Light Rain
9:56 AM 37.9 °F 32.1 °F 32.0 °F 79% 29.35 in 10.0 mi SSE 8.1 mph - 0.01 in Rain Light Rain
10:56 AM 39.0 °F 33.4 °F 30.9 °F 73% 29.35 in 10.0 mi SSE 8.1 mph - 0.00 in   Mostly Cloudy
11:08 AM 39.2 °F 33.6 °F 32.0 °F 75% 29.33 in 10.0 mi SE 8.1 mph - N/A   Mostly Cloudy
11:56 AM 39.0 °F 32.3 °F 32.0 °F 76% 29.34 in 10.0 mi SSE 10.4 mph - 0.00 in Rain Light Rain
12:56 PM 39.9 °F 32.1 °F 32.0 °F 73% 29.33 in 10.0 mi SE 13.8 mph 20.7 mph 0.00 in Rain Light Rain
12:57 PM 39.2 °F 31.2 °F 33.8 °F 81% 29.32 in 10.0 mi SE 13.8 mph 20.7 mph N/A   Mostly Cloudy
1:29 PM 39.2 °F 32.0 °F 33.8 °F 81% 29.31 in 10.0 mi SSE 11.5 mph - N/A   Mostly Cloudy
1:56 PM 41.0 °F 36.4 °F 32.0 °F 70% 29.33 in 10.0 mi South 6.9 mph - N/A   Mostly Cloudy
2:08 PM 39.2 °F 33.0 °F 32.0 °F 75% 29.31 in 10.0 mi SW 9.2 mph - N/A   Mostly Cloudy
2:56 PM 39.0 °F 30.3 °F 33.1 °F 79% 29.33 in 10.0 mi SSE 16.1 mph - 0.00 in Rain Light Rain
3:10 PM 39.2 °F 32.0 °F 32.0 °F 75% 29.31 in 10.0 mi SSE 11.5 mph - 0.00 in Rain Light Rain
3:56 PM 39.9 °F 32.5 °F 32.0 °F 73% 29.33 in 10.0 mi South 12.7 mph - 0.00 in   Scattered Clouds
4:06 PM 39.2 °F 31.6 °F 32.0 °F 75% 29.31 in 10.0 mi South 12.7 mph - 0.00 in Rain Light Rain
4:56 PM 41.0 °F 33.5 °F 32.0 °F 70% 29.32 in 10.0 mi SSE 13.8 mph - 0.00 in   Mostly Cloudy
5:10 PM 39.2 °F 32.0 °F 32.0 °F 75% 29.30 in 10.0 mi SSE 11.5 mph - N/A   Scattered Clouds
5:56 PM 39.9 °F 35.1 °F 32.0 °F 73% 29.32 in 10.0 mi SW 6.9 mph - N/A   Scattered Clouds
6:08 PM 39.2 °F 33.0 °F 32.0 °F 75% 29.31 in 10.0 mi WSW 9.2 mph - N/A   Overcast
6:44 PM 39.2 °F 35.9 °F 32.0 °F 75% 29.31 in 10.0 mi SSW 4.6 mph - N/A   Mostly Cloudy
6:56 PM 39.0 °F 34.8 °F 32.0 °F 76% 29.33 in 10.0 mi Variable 5.8 mph - N/A   Mostly Cloudy
7:08 PM 39.2 °F 33.6 °F 32.0 °F 75% 29.31 in 10.0 mi SSE 8.1 mph - N/A   Mostly Cloudy
7:56 PM 39.0 °F 33.4 °F 30.9 °F 73% 29.33 in 10.0 mi South 8.1 mph - 0.00 in   Mostly Cloudy
8:08 PM 39.2 °F 37.0 °F 32.0 °F 75% 29.32 in 10.0 mi SSW 3.5 mph - N/A   Scattered Clouds
8:20 PM 39.2 °F 35.9 °F 30.2 °F 70% 29.32 in 10.0 mi SSW 4.6 mph - N/A   Mostly Cloudy
8:21 PM 39.2 °F 35.9 °F 30.2 °F 70% 29.32 in 10.0 mi South 4.6 mph - N/A   Mostly Cloudy
8:47 PM 37.4 °F 34.9 °F 32.0 °F 81% 29.33 in 10.0 mi South 3.5 mph - N/A   Scattered Clouds
8:56 PM 37.9 °F 33.5 °F 30.9 °F 76% 29.34 in 10.0 mi SSE 5.8 mph - N/A   Partly Cloudy
9:22 PM 37.4 °F 33.8 °F 30.2 °F 75% 29.34 in 10.0 mi South 4.6 mph - N/A   Mostly Cloudy
9:56 PM 37.9 °F 34.4 °F 30.0 °F 73% 29.37 in 10.0 mi SSE 4.6 mph - N/A   Overcast
10:56 PM 37.9 °F 35.5 °F 30.9 °F 76% 29.38 in 10.0 mi SSW 3.5 mph - N/A   Mostly Cloudy
11:56 PM 37.9 °F 32.7 °F 30.0 °F 73% 29.40 in 10.0 mi SSE 6.9 mph - N/A   Overcast